GW2622 Weather Reports


time (UTC)temp
C
wind
direction
speed
KPH
gust
KPH
rain 1hr
cm
rain 24hr
cm
rain mn
cm
humidity
%
barometer
mb
20260904054409 25 195 3.2 8.0 0.00 0.00 0.00 86 1011.8
20260904053900 25 181 4.8 4.8 0.00 0.00 0.00 86 1012.0
20260904053358 25 176 4.8 4.8 0.00 0.00 0.00 85 1012.0
20260904052854 25 175 4.8 8.0 0.00 0.00 0.00 85 1012.0
20260904052350 25 174 6.4 9.7 0.00 0.00 0.00 85 1012.0
20260904051846 25 169 4.8 4.8 0.00 0.00 0.00 84 1011.8
20260904051342 25 191 4.8 4.8 0.00 0.00 0.00 84 1011.9
20260904050836 25 202 3.2 4.8 0.00 0.00 0.00 84 1011.8
20260904050333 25 192 3.2 3.2 0.00 0.00 0.00 84 1011.9
20260904045828 25 178 4.8 4.8 0.00 0.00 0.00 84 1011.9
20260904045323 25 184 4.8 4.8 0.00 0.00 0.00 84 1011.9
20260904044822 25 219 3.2 4.8 0.00 0.00 0.00 83 1012.0
20260904044319 25 196 3.2 8.0 0.00 0.00 0.00 83 1011.9
20260904043815 26 197 3.2 4.8 0.00 0.00 0.00 83 1012.0
20260904043311 26 244 1.6 3.2 0.00 0.00 0.00 83 1011.8
20260904042806 26 245 1.6 3.2 0.00 0.00 0.00 83 1011.9
20260904042306 26 230 3.2 4.8 0.00 0.00 0.00 82 1011.8
20260904041802 26 185 3.2 4.8 0.00 0.00 0.00 82 1012.0
20260904041259 26 204 3.2 4.8 0.00 0.00 0.00 82 1011.9
20260904040753 26 239 3.2 4.8 0.00 0.00 0.00 83 1011.9
20260904040249 26 220 3.2 3.2 0.00 0.00 0.00 83 1011.9
20260904035745 26 191 3.2 3.2 0.00 0.00 0.00 83 1011.8
20260904035241 26 208 3.2 4.8 0.00 0.00 0.00 83 1011.9
20260904034739 26 197 3.2 3.2 0.00 0.00 0.00 82 1011.9
20260904034236 26 174 4.8 4.8 0.00 0.00 0.00 82 1011.8
20260904033731 26 201 3.2 3.2 0.00 0.00 0.00 81 1012.0
20260904033228 26 203 3.2 3.2 0.00 0.00 0.00 81 1012.0
20260904032723 26 241 1.6 3.2 0.00 0.00 0.00 80 1011.7
20260904032222 26 187 3.2 3.2 0.00 0.00 0.00 80 1011.7
20260904031717 26 205 3.2 3.2 0.00 0.00 0.00 80 1011.8
20260904031213 26 233 3.2 3.2 0.00 0.00 0.00 80 1011.8
20260904030708 27 224 3.2 3.2 0.00 0.00 0.00 80 1011.8
20260904030203 27 211 3.2 3.2 0.00 0.00 0.00 78 1011.8
20260904025700 27 218 3.2 4.8 0.00 0.00 0.00 78 1011.7
20260904025154 27 256 1.6 4.8 0.00 0.00 0.00 78 1011.7
20260904024650 27 247 3.2 4.8 0.00 0.00 0.00 77 1011.7
20260904024145 27 191 4.8 4.8 0.00 0.00 0.00 76 1011.7
20260904023641 27 183 4.8 8.0 0.00 0.00 0.00 75 1011.5
20260904023131 28 226 3.2 4.8 0.00 0.00 0.00 75 1011.6
20260904022631 28 221 3.2 4.8 0.00 0.00 0.00 74 1011.6
20260904022128 28 215 1.6 4.8 0.00 0.00 0.00 74 1011.6
20260904021624 28 229 3.2 8.0 0.00 0.00 0.00 74 1011.4
20260904021118 28 225 3.2 4.8 0.00 0.00 0.00 74 1011.6
20260904020614 28 214 4.8 4.8 0.00 0.00 0.00 73 1011.5
20260904020108 28 182 4.8 8.0 0.00 0.00 0.00 73 1011.3
20260904015603 28 180 4.8 4.8 0.00 0.00 0.00 73 1011.4
20260904015101 28 189 4.8 4.8 0.00 0.00 0.00 73 1011.1
20260904014555 28 205 4.8 8.0 0.00 0.00 0.00 72 1011.1
20260904014051 29 223 4.8 9.7 0.00 0.00 0.00 72 1011.3
20260904013548 29 200 4.8 8.0 0.00 0.00 0.00 71 1011.0
20260904013044 29 180 6.4 9.7 0.00 0.00 0.00 71 1011.0
20260904012538 29 210 4.8 8.0 0.00 0.00 0.00 72 1011.2
20260904012037 29 185 3.2 8.0 0.00 0.00 0.00 73 1011.3
20260904011532 29 210 3.2 4.8 0.00 0.00 0.00 73 1011.1
20260904011027 29 181 4.8 4.8 0.00 0.00 0.00 73 1011.0
20260904010524 29 212 3.2 4.8 0.00 0.00 0.00 74 1010.8
20260904010019 30 173 4.8 4.8 0.00 0.00 0.00 73 1010.8
20260904005514 30 184 4.8 4.8 0.00 0.00 0.00 73 1011.0
20260904005009 30 236 3.2 3.2 0.00 0.00 0.00 73 1010.9
20260904004505 30 219 3.2 4.8 0.00 0.00 0.00 72 1010.8
20260904004005 30 175 4.8 4.8 0.00 0.00 0.00 72 1011.0
20260904003501 30 216 3.2 3.2 0.00 0.00 0.00 72 1010.7
20260904002956 30 183 4.8 4.8 0.00 0.00 0.00 71 1010.8
20260904002452 30 211 3.2 3.2 0.00 0.00 0.00 70 1010.7
20260904001950 31 211 3.2 3.2 0.00 0.00 0.00 70 1010.8
20260904001447 31 200 3.2 3.2 0.00 0.00 0.00 68 1010.8
20260904000941 31 272 1.6 4.8 0.00 0.00 0.00 68 1010.8
20260904000440 31 180 4.8 4.8 0.00 0.00 0.00 66 1010.8
20260903235936 32 202 4.8 8.0 0.00 0.00 0.00 65 1010.8
20260903235432 32 187 4.8 8.0 0.00 0.00 0.00 64 1010.7
20260903234926 32 181 4.8 11.3 0.00 0.00 0.00 63 1010.7
20260903234422 32 177 6.4 9.7 0.00 0.00 0.00 63 1010.7
20260903233918 32 199 6.4 11.3 0.00 0.00 0.00 63 1010.7
20260903233413 33 222 3.2 9.7 0.00 0.00 0.00 62 1010.6
20260903232908 33 199 3.2 9.7 0.00 0.00 0.00 61 1010.7
20260903232403 33 178 8.0 9.7 0.00 0.00 0.00 61 1010.7
20260903231902 33 190 8.0 12.9 0.00 0.00 0.00 60 1010.6
20260903231357 33 271 3.2 8.0 0.00 0.00 0.00 60 1010.8
20260903230853 33 166 11.3 16.1 0.00 0.00 0.00 58 1010.8
20260903230348 33 169 6.4 9.7 0.00 0.00 0.00 59 1010.6
20260903225844 33 191 4.8 11.3 0.00 0.00 0.00 59 1010.5
20260903225340 34 230 4.8 8.0 0.00 0.00 0.00 59 1010.5
20260903224836 34 181 8.0 9.7 0.00 0.00 0.00 58 1010.7
20260903224332 34 163 6.4 14.5 0.00 0.00 0.00 59 1010.4
20260903223827 34 160 6.4 9.7 0.00 0.00 0.00 58 1010.4
20260903223326 34 166 6.4 12.9 0.00 0.00 0.00 56 1010.4
20260903222821 34 175 4.8 11.3 0.00 0.00 0.00 56 1010.5
20260903222320 35 134 9.7 16.1 0.00 0.00 0.00 55 1010.5
20260903221815 35 182 8.0 14.5 0.00 0.00 0.00 57 1010.6
20260903221314 35 179 11.3 12.9 0.00 0.00 0.00 57 1010.8
20260903220812 35 147 6.4 11.3 0.00 0.00 0.00 57 1010.9
20260903220301 35 161 9.7 12.9 0.00 0.00 0.00 56 1010.8
20260903215759 35 197 9.7 11.3 0.00 0.00 0.00 56 1011.0
20260903215256 35 217 8.0 14.5 0.00 0.00 0.00 55 1011.0
20260903214753 35 263 4.8 9.7 0.00 0.00 0.00 55 1010.8
20260903214244 35 207 12.9 16.1 0.00 0.00 0.00 54 1010.9
20260903213738 35 179 8.0 14.5 0.00 0.00 0.00 53 1011.0
20260903213234 35 162 11.3 24.1 0.00 0.00 0.00 53 1011.1
20260903212730 35 166 14.5 16.1 0.00 0.00 0.00 55 1011.2
20260903212226 35 120 9.7 14.5 0.00 0.00 0.00 54 1011.2
20260903211724 35 196 8.0 17.7 0.00 0.00 0.00 53 1011.2
20260903211222 35 225 12.9 16.1 0.00 0.00 0.00 55 1011.3
20260903210717 35 209 8.0 12.9 0.00 0.00 0.00 54 1011.1
20260903210213 35 256 8.0 11.3 0.00 0.00 0.00 54 1011.2
20260903205707 35 167 4.8 11.3 0.00 0.00 0.00 57 1011.3
20260903205206 35 153 8.0 9.7 0.00 0.00 0.00 56 1011.3
20260903204702 35 244 4.8 12.9 0.00 0.00 0.00 56 1011.4
20260903204158 35 150 6.4 11.3 0.00 0.00 0.00 55 1011.3
20260903203653 34 264 8.0 12.9 0.00 0.00 0.00 57 1011.6
20260903203148 35 198 9.7 12.9 0.00 0.00 0.00 56 1011.7
20260903202643 35 219 6.4 11.3 0.00 0.00 0.00 58 1011.5
20260903202138 35 148 8.0 12.9 0.00 0.00 0.00 57 1011.7
20260903201638 35 252 8.0 12.9 0.00 0.00 0.00 57 1011.7
20260903201137 35 194 6.4 14.5 0.00 0.00 0.00 54 1011.6
20260903200632 35 234 8.0 12.9 0.00 0.00 0.00 54 1011.8
20260903200127 35 253 4.8 17.7 0.00 0.00 0.00 55 1011.7
20260903195623 35 199 9.7 16.1 0.00 0.00 0.00 55 1012.1
20260903195119 35 130 9.7 14.5 0.00 0.00 0.00 55 1012.1
20260903194614 35 180 6.4 12.9 0.00 0.00 0.00 56 1012.1
20260903194114 35 216 14.5 16.1 0.00 0.00 0.00 55 1012.3
20260903193610 35 180 8.0 11.3 0.00 0.00 0.00 57 1012.2
20260903193105 35 174 8.0 11.3 0.00 0.00 0.00 56 1012.4
20260903192602 35 247 4.8 11.3 0.00 0.00 0.00 59 1012.3
20260903192057 34 199 4.8 14.5 0.00 0.00 0.00 58 1012.2
20260903191553 35 176 6.4 8.0 0.00 0.00 0.00 58 1012.2
20260903191048 34 281 1.6 4.8 0.00 0.00 0.00 59 1012.4
20260903190547 34 222 6.4 11.3 0.00 0.00 0.00 58 1012.4
20260903190047 34 177 6.4 9.7 0.00 0.00 0.00 57 1012.7
20260903185542 34 199 3.2 9.7 0.00 0.00 0.00 58 1012.4
20260903185038 34 255 4.8 9.7 0.00 0.00 0.00 58 1012.5
20260903184534 34 218 6.4 14.5 0.00 0.00 0.00 59 1012.5
20260903184029 33 208 9.7 12.9 0.00 0.00 0.00 59 1012.4
20260903183528 33 219 6.4 9.7 0.00 0.00 0.00 62 1012.7
20260903183024 33 221 8.0 9.7 0.00 0.00 0.00 61 1012.8
20260903182522 33 212 8.0 11.3 0.00 0.00 0.00 58 1012.9
20260903182019 35 210 14.5 20.9 0.00 0.00 0.00 57 1012.8
20260903181517 34 279 4.8 8.0 0.00 0.00 0.00 57 1012.7
20260903181017 35 259 8.0 11.3 0.00 0.00 0.00 57 1012.8
20260903180513 34 228 4.8 14.5 0.00 0.00 0.00 58 1012.7
20260903180012 34 230 6.4 14.5 0.00 0.00 0.00 58 1012.7
20260903175511 33 239 8.0 11.3 0.00 0.00 0.00 58 1012.8
20260903175010 33 216 11.3 14.5 0.00 0.00 0.00 57 1012.8
20260903174505 33 224 8.0 12.9 0.00 0.00 0.00 59 1012.8
20260903174000 33 222 8.0 14.5 0.00 0.00 0.00 59 1012.8
20260903173455 33 203 14.5 16.1 0.00 0.00 0.00 59 1012.7
20260903172950 34 178 8.0 16.1 0.00 0.00 0.00 55 1012.9
20260903172445 34 285 1.6 8.0 0.00 0.00 0.00 57 1012.9
20260903171941 33 213 11.3 17.7 0.00 0.00 0.00 57 1012.9
20260903171436 33 273 3.2 16.1 0.00 0.00 0.00 59 1013.1
20260903170936 33 233 8.0 12.9 0.00 0.00 0.00 59 1013.2
20260903170431 34 223 4.8 8.0 0.00 0.00 0.00 58 1012.9
20260903165930 33 213 8.0 12.9 0.00 0.00 0.00 58 1013.1
20260903165424 34 233 4.8 9.7 0.00 0.00 0.00 56 1013.1
20260903164918 33 188 4.8 11.3 0.00 0.00 0.00 56 1013.0
20260903164414 33 264 3.2 9.7 0.00 0.00 0.00 58 1013.0
20260903163913 33 220 8.0 11.3 0.00 0.00 0.00 57 1013.0
20260903163409 33 232 8.0 12.9 0.00 0.00 0.00 59 1012.9
20260903162905 33 291 4.8 11.3 0.00 0.00 0.00 59 1012.9
20260903162402 33 228 6.4 9.7 0.00 0.00 0.00 59 1013.0
20260903161857 32 231 8.0 11.3 0.00 0.00 0.00 60 1013.0
20260903161352 33 233 3.2 9.7 0.00 0.00 0.00 62 1013.3
20260903160848 33 216 9.7 11.3 0.00 0.00 0.00 60 1013.3
20260903160346 33 246 3.2 4.8 0.00 0.00 0.00 57 1013.1
20260903155845 32 227 3.2 9.7 0.00 0.00 0.00 62 1013.3
20260903155341 32 291 3.2 9.7 0.00 0.00 0.00 61 1013.4
20260903154837 32 241 9.7 11.3 0.00 0.00 0.00 61 1013.2
20260903154333 32 262 4.8 4.8 0.00 0.00 0.00 60 1013.3
20260903153833 32 271 1.6 8.0 0.00 0.00 0.00 62 1013.2
20260903153329 31 254 4.8 12.9 0.00 0.00 0.00 63 1013.2
20260903152825 31 256 4.8 9.7 0.00 0.00 0.00 65 1013.2
20260903152320 32 267 3.2 8.0 0.00 0.00 0.00 64 1013.2
20260903151815 31 262 3.2 8.0 0.00 0.00 0.00 65 1013.2
20260903151311 31 285 3.2 8.0 0.00 0.00 0.00 66 1013.3
20260903150811 31 270 4.8 8.0 0.00 0.00 0.00 68 1013.4
20260903150311 31 263 0.0 4.8 0.00 0.00 0.00 67 1013.2
20260903145806 31 246 4.8 8.0 0.00 0.00 0.00 68 1013.2
20260903145301 30 220 4.8 4.8 0.00 0.00 0.00 70 1013.4
20260903144800 30 243 4.8 8.0 0.00 0.00 0.00 70 1013.3
20260903144256 30 223 1.6 8.0 0.00 0.00 0.00 70 1013.3
20260903143752 29 258 3.2 4.8 0.00 0.00 0.00 71 1013.3
20260903143248 29 247 3.2 4.8 0.00 0.00 0.00 72 1013.4
20260903142743 28 274 1.6 4.8 0.00 0.00 0.00 74 1013.4
20260903142239 28 221 1.6 8.0 0.00 0.00 0.00 75 1013.4
20260903141735 28 196 6.4 8.0 0.00 0.00 0.00 73 1013.3
20260903141230 28 219 4.8 8.0 0.00 0.00 0.00 73 1013.3
20260903140725 28 246 3.2 9.7 0.00 0.00 0.00 75 1013.1
20260903140220 27 265 1.6 8.0 0.00 0.00 0.00 76 1013.4
20260903135716 27 273 4.8 4.8 0.00 0.00 0.00 75 1013.6
20260903135211 27 302 1.6 4.8 0.00 0.00 0.00 78 1013.5
20260903134710 27 283 3.2 4.8 0.00 0.00 0.00 77 1013.3
20260903134206 27 234 4.8 8.0 0.00 0.00 0.00 78 1013.4
20260903133704 26 237 4.8 4.8 0.00 0.00 0.00 78 1013.3
20260903133200 26 189 4.8 8.0 0.00 0.00 0.00 78 1013.4
20260903132700 27 273 1.6 1.6 0.00 0.00 0.00 77 1013.4
20260903132200 26 310 0.0 0.0 0.00 0.00 0.00 79 1013.4
20260903131655 26 316 0.0 1.6 0.00 0.00 0.00 81 1013.5
20260903131149 26 296 0.0 1.6 0.00 0.00 0.00 81 1013.6
20260903130644 26 306 0.0 0.0 0.00 0.00 0.00 80 1013.5
20260903130143 25 306 0.0 0.0 0.00 0.00 0.00 81 1013.2
20260903125642 25 307 0.0 0.0 0.00 0.00 0.00 83 1013.3
20260903125137 25 308 0.0 1.6 0.00 0.00 0.00 85 1013.2
20260903124638 24 308 1.6 1.6 0.00 0.00 0.00 86 1013.2
20260903124137 24 279 0.0 0.0 0.00 0.00 0.00 86 1013.2
20260903123631 23 278 0.0 1.6 0.00 0.00 0.00 88 1013.3
20260903123130 23 344 3.2 4.8 0.00 0.00 0.00 88 1013.4
20260903122624 23 326 3.2 3.2 0.00 0.00 0.00 88 1013.0
20260903122119 23 306 0.0 3.2 0.00 0.00 0.00 88 1013.0
20260903121618 23 301 1.6 3.2 0.00 0.00 0.00 88 1013.0
20260903121113 23 279 0.0 1.6 0.00 0.00 0.00 87 1012.6
20260903120612 23 236 3.2 4.8 0.00 0.00 0.00 87 1012.5
20260903120107 23 245 3.2 4.8 0.00 0.00 0.00 87 1012.7
20260903115605 23 236 3.2 3.2 0.00 0.00 0.00 88 1012.6
20260903115100 23 237 3.2 4.8 0.00 0.00 0.00 87 1012.4
20260903114555 23 222 3.2 4.8 0.00 0.00 0.00 87 1012.5
20260903114046 23 232 3.2 4.8 0.00 0.00 0.00 87 1012.4
20260903113541 23 221 3.2 4.8 0.00 0.00 0.00 87 1012.4
20260903113037 23 212 4.8 4.8 0.00 0.00 0.00 86 1012.4
20260903112533 23 244 4.8 4.8 0.00 0.00 0.00 86 1012.5
20260903112028 23 211 4.8 8.0 0.00 0.00 0.00 86 1012.2
20260903111526 23 214 4.8 4.8 0.00 0.00 0.00 87 1012.2
20260903111023 23 209 3.2 4.8 0.00 0.00 0.00 87 1012.2
20260903110518 23 213 4.8 4.8 0.00 0.00 0.00 87 1012.1
20260903110013 23 213 4.8 4.8 0.00 0.00 0.00 86 1011.8
20260903105508 24 195 4.8 8.0 0.00 0.00 0.00 86 1012.0
20260903105007 24 207 3.2 8.0 0.00 0.00 0.00 85 1012.1
20260903104502 25 213 6.4 8.0 0.00 0.00 0.00 85 1012.0
20260903103958 25 230 6.4 9.7 0.00 0.00 0.00 84 1012.0
20260903103454 25 217 8.0 8.0 0.00 0.00 0.00 84 1011.9
20260903102949 25 223 4.8 4.8 0.00 0.00 0.00 84 1011.7
20260903102444 25 215 6.4 9.7 0.00 0.00 0.00 83 1011.8
20260903101942 25 222 4.8 8.0 0.00 0.00 0.00 84 1011.8
20260903101432 25 237 3.2 8.0 0.00 0.00 0.00 84 1011.8
20260903100928 25 206 4.8 8.0 0.00 0.00 0.00 83 1011.7
20260903100423 25 220 6.4 8.0 0.00 0.00 0.00 83 1011.7
20260903095920 25 165 4.8 9.7 0.00 0.00 0.00 83 1011.6
20260903095414 25 219 4.8 8.0 0.00 0.00 0.00 83 1011.8
20260903094909 25 211 4.8 9.7 0.00 0.00 0.00 83 1011.8
20260903094403 25 218 6.4 8.0 0.00 0.00 0.00 82 1011.8
20260903093900 25 219 6.4 9.7 0.00 0.00 0.00 82 1011.9
20260903093354 25 210 6.4 9.7 0.00 0.00 0.00 81 1011.8
20260903092850 25 244 4.8 8.0 0.00 0.00 0.00 81 1011.8
20260903092349 25 184 4.8 9.7 0.00 0.00 0.00 81 1011.7
20260903091848 25 212 4.8 8.0 0.00 0.00 0.00 81 1011.6
20260903091348 25 221 8.0 11.3 0.00 0.00 0.00 80 1011.6
20260903090843 26 215 4.8 8.0 0.00 0.00 0.00 80 1011.8
20260903090338 26 217 4.8 9.7 0.00 0.00 0.00 80 1011.6
20260903085836 26 188 4.8 9.7 0.00 0.00 0.00 79 1011.7
20260903085335 26 198 6.4 9.7 0.00 0.00 0.00 79 1011.8
20260903084834 26 228 6.4 9.7 0.00 0.00 0.00 79 1011.6
20260903084333 26 200 6.4 9.7 0.00 0.00 0.00 79 1011.6
20260903083829 26 200 6.4 8.0 0.00 0.00 0.00 79 1011.6
20260903083325 26 216 6.4 9.7 0.00 0.00 0.00 78 1011.8
20260903082823 26 210 4.8 9.7 0.00 0.00 0.00 78 1011.7
20260903082319 26 190 6.4 9.7 0.00 0.00 0.00 78 1011.7
20260903081814 26 198 8.0 8.0 0.00 0.00 0.00 78 1011.6
20260903081309 26 215 6.4 11.3 0.00 0.00 0.00 78 1011.7
20260903080806 26 188 4.8 9.7 0.00 0.00 0.00 78 1011.7
20260903080304 26 213 4.8 9.7 0.00 0.00 0.00 77 1011.6
20260903075802 26 220 4.8 8.0 0.00 0.00 0.00 77 1011.7
20260903075257 26 196 8.0 11.3 0.00 0.00 0.00 77 1011.8
20260903074756 27 218 8.0 12.9 0.00 0.00 0.00 76 1011.8
20260903074252 27 218 6.4 11.3 0.00 0.00 0.00 77 1011.9
20260903073742 27 208 8.0 12.9 0.00 0.00 0.00 76 1011.7
20260903073237 27 210 9.7 11.3 0.00 0.00 0.00 76 1011.9
20260903072733 27 247 6.4 9.7 0.00 0.00 0.00 76 1011.9
20260903072229 27 230 6.4 12.9 0.00 0.00 0.00 76 1011.8
20260903071725 27 209 4.8 9.7 0.00 0.00 0.00 76 1011.9
20260903071215 27 214 6.4 9.7 0.00 0.00 0.00 76 1011.8
20260903070715 27 185 4.8 16.1 0.00 0.00 0.00 76 1011.8
20260903070210 27 210 8.0 11.3 0.00 0.00 0.00 76 1011.9
20260903065705 27 224 9.7 14.5 0.00 0.00 0.00 75 1011.9
20260903065159 27 201 9.7 14.5 0.00 0.00 0.00 76 1011.7
20260903064658 27 205 8.0 12.9 0.00 0.00 0.00 76 1011.8
20260903064153 27 174 8.0 11.3 0.00 0.00 0.00 76 1012.1
20260903063643 27 205 9.7 11.3 0.00 0.00 0.00 76 1012.0
20260903063138 27 209 6.4 11.3 0.00 0.00 0.00 76 1012.0
20260903062634 27 191 8.0 9.7 0.00 0.00 0.00 76 1012.0
20260903062129 27 213 6.4 9.7 0.00 0.00 0.00 76 1011.9
20260903061624 27 237 6.4 11.3 0.00 0.00 0.00 76 1012.0
20260903061123 26 213 6.4 8.0 0.00 0.00 0.00 77 1012.0
20260903060618 27 164 6.4 9.7 0.00 0.00 0.00 77 1012.1
20260903060114 27 213 8.0 9.7 0.00 0.00 0.00 77 1011.9
20260903055611 26 202 6.4 9.7 0.00 0.00 0.00 77 1011.9
20260903055109 26 188 6.4 9.7 0.00 0.00 0.00 78 1011.8